• In Spain
  • List of Countries
  • For 7 days
  • Water Temperature
  • Satellite Maps
  • Weather Map
  • Weather Widgets
  • user-avatar
    Login

    Hourly Weather Malaya Lapushka

    Today, 21 October, Sunday

    Time Temperature Precipitation Wind Pressure Humidity
    00:00 +3°C° 0 mm 0 mps 747 mmHg 93%
    01:00 +3°C° 0 mm 0 mps 747 mmHg 93%
    02:00 +3°C° 0 mm 0 mps 747 mmHg 94%
    03:00 +3°C° 0 mm 0 mps 747 mmHg 94%
    04:00 +2°C° 0 mm 0 mps 747 mmHg 94%
    05:00 +2°C° 0 mm 0 mps 748 mmHg 94%
    06:00 +3°C° 0 mm 0 mps 748 mmHg 93%
    07:00 +3°C° 0 mm 0 mps 748 mmHg 92%
    08:00 +3°C° 0 mm 0 mps 749 mmHg 90%
    09:00 +5°C° 0 mm 0 mps 749 mmHg 84%
    10:00 +6°C° 0 mm 0 mps 749 mmHg 78%
    11:00 +7°C° 0 mm 0 mps 749 mmHg 72%
    12:00 +8°C° 0 mm 0 mps 749 mmHg 70%
    13:00 +8°C° 0 mm 0 mps 749 mmHg 68%
    14:00 +9°C° 0 mm 1 mps 749 mmHg 66%
    15:00 +8°C° 0 mm 1 mps 749 mmHg 71%
    16:00 +7°C° 0 mm 1 mps 749 mmHg 77%
    17:00 +6°C° 0 mm 1 mps 749 mmHg 82%
    18:00 +5°C° 0 mm 1 mps 749 mmHg 84%
    19:00 +5°C° 0 mm 1 mps 749 mmHg 86%
    20:00 +5°C° 0 mm 1 mps 749 mmHg 89%
    21:00 +4°C° 0 mm 1 mps 749 mmHg 90%
    22:00 +4°C° 0 mm 1 mps 749 mmHg 91%
    23:00 +3°C° 0 mm 2 mps 749 mmHg 92%

    Tomorrow, 22 October, Monday

    Time Temperature Precipitation Wind Pressure Humidity
    00:00 +3°C° 0 mm 2 mps 749 mmHg 92%
    01:00 +3°C° 0 mm 2 mps 748 mmHg 92%
    02:00 +2°C° 0 mm 2 mps 748 mmHg 92%
    03:00 +2°C° 0 mm 2 mps 748 mmHg 91%
    04:00 +1°C° 0 mm 3 mps 747 mmHg 91%
    05:00 +1°C° 0 mm 3 mps 747 mmHg 90%
    06:00 +2°C° 0 mm 3 mps 746 mmHg 88%
    07:00 +1°C° 0 mm 4 mps 746 mmHg 85%
    08:00 +1°C° 0 mm 4 mps 746 mmHg 82%
    09:00 +4°C° 0 mm 4 mps 746 mmHg 78%
    10:00 +5°C° 0 mm 4 mps 745 mmHg 73%
    11:00 +6°C° 0 mm 5 mps 745 mmHg 68%
    12:00 +7°C° 0 mm 5 mps 744 mmHg 67%
    13:00 +7°C° 0 mm 5 mps 743 mmHg 66%
    14:00 +8°C° 0 mm 5 mps 743 mmHg 66%
    15:00 +7°C° 0 mm 5 mps 742 mmHg 69%
    16:00 +6°C° 0 mm 5 mps 742 mmHg 73%
    17:00 +5°C° 0 mm 4 mps 741 mmHg 76%
    18:00 +5°C° 0.1 mm 4 mps 741 mmHg 78%
    19:00 +5°C° 0.1 mm 4 mps 740 mmHg 80%
    20:00 +5°C° 0.1 mm 4 mps 740 mmHg 82%
    21:00 +5°C° 0.4 mm 4 mps 740 mmHg 84%
    22:00 +5°C° 0.4 mm 4 mps 739 mmHg 86%
    23:00 +5°C° 0.4 mm 4 mps 739 mmHg 88%

    Day after tomorrow, 23 October, Tuesday

    Time Temperature Precipitation Wind Pressure Humidity
    00:00 +5°C° 0.6 mm 3 mps 738 mmHg 89%
    01:00 +5°C° 0.6 mm 3 mps 738 mmHg 91%
    02:00 +5°C° 0.6 mm 3 mps 738 mmHg 92%
    03:00 +5°C° 0.6 mm 3 mps 737 mmHg 91%
    04:00 +5°C° 0.6 mm 3 mps 737 mmHg 91%
    05:00 +5°C° 0.6 mm 3 mps 737 mmHg 90%
    06:00 +4°C° 0.1 mm 3 mps 737 mmHg 88%
    07:00 +4°C° 0.1 mm 3 mps 736 mmHg 87%
    08:00 +4°C° 0.1 mm 2 mps 736 mmHg 86%
    09:00 +5°C° 0 mm 2 mps 736 mmHg 80%
    10:00 +5°C° 0 mm 2 mps 736 mmHg 75%
    11:00 +6°C° 0 mm 2 mps 736 mmHg 70%
    12:00 +6°C° 0 mm 2 mps 735 mmHg 67%
    13:00 +6°C° 0 mm 2 mps 734 mmHg 64%
    14:00 +7°C° 0 mm 2 mps 734 mmHg 61%
    15:00 +6°C° 0 mm 2 mps 733 mmHg 67%
    16:00 +5°C° 0 mm 2 mps 732 mmHg 72%
    17:00 +3°C° 0 mm 2 mps 732 mmHg 78%
    18:00 +3°C° 0 mm 2 mps 731 mmHg 78%
    19:00 +3°C° 0 mm 2 mps 730 mmHg 79%
    20:00 +2°C° 0 mm 3 mps 729 mmHg 80%
    21:00 +2°C° 0 mm 3 mps 729 mmHg 81%
    22:00 +1°C° 0 mm 3 mps 728 mmHg 82%
    23:00 +1°C° 0 mm 3 mps 727 mmHg 83%

    24 October, Wednesday

    Time Temperature Precipitation Wind Pressure Humidity
    00:00 +1°C° 0 mm 3 mps 726 mmHg 83%
    01:00 0°C° 0 mm 4 mps 725 mmHg 84%
    02:00 0°C° 0 mm 4 mps 724 mmHg 84%
    03:00 0°C° 0 mm 4 mps 723 mmHg 84%
    04:00 0°C° 0 mm 4 mps 723 mmHg 83%
    05:00 0°C° 0 mm 4 mps 722 mmHg 83%
    06:00 0°C° 0.1 mm 5 mps 721 mmHg 83%
    07:00 0°C° 0.1 mm 5 mps 721 mmHg 83%
    08:00 +1°C° 0.1 mm 5 mps 721 mmHg 82%
    09:00 +1°C° 0.2 mm 5 mps 720 mmHg 82%
    10:00 +2°C° 0.2 mm 5 mps 720 mmHg 81%
    11:00 +2°C° 0.2 mm 5 mps 720 mmHg 80%
    12:00 +3°C° 0.3 mm 4 mps 720 mmHg 80%
    13:00 +3°C° 0.3 mm 4 mps 720 mmHg 80%
    14:00 +3°C° 0.3 mm 4 mps 720 mmHg 80%
    15:00 +3°C° 0.2 mm 4 mps 720 mmHg 82%
    16:00 +3°C° 0.2 mm 3 mps 720 mmHg 84%
    17:00 +3°C° 0.2 mm 3 mps 720 mmHg 85%
    18:00 +3°C° 0.2 mm 3 mps 719 mmHg 86%
    19:00 +3°C° 0.2 mm 3 mps 719 mmHg 87%
    20:00 +3°C° 0.2 mm 3 mps 719 mmHg 88%
    21:00 +3°C° 0.2 mm 3 mps 719 mmHg 89%
    22:00 +3°C° 0.2 mm 3 mps 719 mmHg 90%
    23:00 +3°C° 0.2 mm 3 mps 719 mmHg 91%

    25 October, Thursday

    Time Temperature Precipitation Wind Pressure Humidity
    00:00 +4°C° 0.7 mm 2 mps 719 mmHg 92%
    01:00 +4°C° 0.7 mm 2 mps 718 mmHg 92%
    02:00 +4°C° 0.7 mm 2 mps 718 mmHg 93%
    03:00 +4°C° 0.7 mm 2 mps 718 mmHg 93%
    04:00 +4°C° 0.7 mm 2 mps 718 mmHg 93%
    05:00 +3°C° 0.7 mm 2 mps 718 mmHg 93%
    06:00 +3°C° 0.6 mm 2 mps 718 mmHg 92%
    07:00 +2°C° 0.6 mm 3 mps 718 mmHg 91%
    08:00 +2°C° 0.6 mm 3 mps 718 mmHg 90%
    09:00 +3°C° 0.4 mm 3 mps 719 mmHg 88%
    10:00 +3°C° 0.4 mm 4 mps 719 mmHg 86%
    11:00 +3°C° 0.4 mm 4 mps 719 mmHg 84%
    12:00 +3°C° 0.2 mm 4 mps 720 mmHg 81%
    13:00 +3°C° 0.2 mm 4 mps 720 mmHg 78%
    14:00 +4°C° 0.2 mm 4 mps 721 mmHg 75%
    15:00 +3°C° 0 mm 4 mps 721 mmHg 78%
    16:00 +2°C° 0 mm 3 mps 722 mmHg 81%
    17:00 +2°C° 0 mm 3 mps 722 mmHg 84%
    18:00 +1°C° 0 mm 3 mps 723 mmHg 85%
    19:00 +1°C° 0 mm 3 mps 723 mmHg 87%
    20:00 +1°C° 0 mm 3 mps 724 mmHg 89%
    21:00 +1°C° 0 mm 3 mps 724 mmHg 90%
    22:00 0°C° 0 mm 3 mps 724 mmHg 92%
    23:00 0°C° 0 mm 3 mps 725 mmHg 93%

    26 October, Friday

    Time Temperature Precipitation Wind Pressure Humidity
    00:00 0°C° 0 mm 3 mps 725 mmHg 94%
    01:00 0°C° 0 mm 3 mps 726 mmHg 94%
    02:00 0°C° 0 mm 3 mps 726 mmHg 94%
    03:00 0°C° 0 mm 3 mps 726 mmHg 93%
    04:00 0°C° 0 mm 3 mps 726 mmHg 93%
    05:00 0°C° 0 mm 3 mps 727 mmHg 92%
    06:00 0°C° 0 mm 3 mps 727 mmHg 91%
    07:00 0°C° 0 mm 3 mps 727 mmHg 90%
    08:00 0°C° 0 mm 3 mps 728 mmHg 89%
    09:00 +1°C° 0 mm 3 mps 728 mmHg 87%
    10:00 +1°C° 0 mm 3 mps 728 mmHg 85%
    11:00 +1°C° 0 mm 3 mps 728 mmHg 83%
    12:00 +2°C° 0 mm 3 mps 728 mmHg 81%
    13:00 +2°C° 0 mm 3 mps 728 mmHg 79%
    14:00 +2°C° 0 mm 3 mps 729 mmHg 77%
    15:00 +3°C° 0.1 mm 2 mps 729 mmHg 81%
    16:00 +2°C° 0.1 mm 2 mps 729 mmHg 86%
    17:00 +1°C° 0.1 mm 2 mps 729 mmHg 90%
    18:00 +1°C° 0 mm 2 mps 729 mmHg 91%
    19:00 +1°C° 0 mm 2 mps 729 mmHg 93%
    20:00 -1°C° 0 mm 2 mps 730 mmHg 94%
    21:00 -1°C° 0 mm 2 mps 730 mmHg 94%
    22:00 -1°C° 0 mm 2 mps 730 mmHg 94%
    23:00 -1°C° 0 mm 2 mps 730 mmHg 94%
    Show more